This is the latest recevied weather packets stored in our database for station/object KB2AHZ. If no packets are shown the sender has not sent any weather packets the latest 10 day(s).
| Time | Temp. | Humidity | Pressure | Rain* | Wind** | Luminosity | Snow |
|---|---|---|---|---|---|---|---|
| 1777634987 | 8.33° C | 85% | 1016.9 hPa | 0 mm | - | 84 W/m² | - |
| 1777634683 | 7.78° C | 86% | 1016.6 hPa | 0 mm | - | 72 W/m² | - |
| 1777634382 | 7.78° C | 89% | 1016.6 hPa | 0 mm | - | 63 W/m² | - |
| 1777634077 | 7.78° C | 87% | 1016.6 hPa | 0 mm | - | 59 W/m² | - |
| 1777633773 | 7.78° C | 87% | 1016.4 hPa | 0 mm | - | 48 W/m² | - |
| 1777633472 | 7.78° C | 87% | 1016.6 hPa | 0 mm | - | 42 W/m² | - |
| 1777633169 | 7.78° C | 85% | 1016.6 hPa | 0 mm | - | 33 W/m² | - |
| 1777632866 | 7.22° C | 86% | 1016.4 hPa | 0 mm | - | 28 W/m² | - |
| 1777632561 | 7.22° C | 87% | 1016.5 hPa | 0 mm | - | 25 W/m² | - |
| 1777632260 | 7.22° C | 88% | 1016.5 hPa | 0 mm | - | 20 W/m² | - |
| 1777631956 | 7.22° C | 89% | 1016.7 hPa | 0 mm | - | 15 W/m² | - |
| 1777631654 | 7.22° C | 88% | 1016.6 hPa | 0 mm | - | 11 W/m² | - |
| 1777631351 | 7.22° C | 87% | 1016.3 hPa | 0 mm | - | 7 W/m² | - |
| 1777631048 | 6.67° C | 88% | 1016.2 hPa | 0 mm | - | 5 W/m² | - |
| 1777630744 | 6.67° C | 88% | 1016.5 hPa | 0 mm | - | 2 W/m² | - |
| 1777630441 | 7.22° C | 88% | 1016.1 hPa | 0 mm | - | 1 W/m² | - |
| 1777630139 | 6.67° C | 88% | 1016.1 hPa | 0 mm | - | 0 W/m² | - |
| 1777629836 | 6.67° C | 90% | 1016.2 hPa | 0 mm | - | 0 W/m² | - |
| 1777629533 | 6.67° C | 89% | 1016.4 hPa | 0 mm | - | 0 W/m² | - |
| 1777629229 | 6.67° C | 89% | 1016.3 hPa | 0 mm | - | 0 W/m² | - |
| 1777628925 | 7.22° C | 90% | 1016.2 hPa | 0 mm | - | 0 W/m² | - |
| 1777628622 | 7.22° C | 90% | 1015.8 hPa | 0 mm | - | 0 W/m² | - |
| 1777628318 | 7.22° C | 90% | 1016.1 hPa | 0 mm | - | 0 W/m² | - |
| 1777628014 | 7.22° C | 89% | 1016.3 hPa | 0 mm | - | 0 W/m² | - |
| 1777627713 | 7.22° C | 88% | 1016.1 hPa | 0 mm | - | 0 W/m² | - |
* Rain latest hour (hover to see other rain measurements)
** Current wind speed in m/s (hover to see current wind gust speed)